Time,TemperatureF,DewpointF,PressureIn,WindDirection,WindDirectionDegrees,WindSpeedMPH,WindSpeedGustMPH,Humidity,HourlyPrecipIn,Conditions,Clouds,dailyrainin,SolarRadiationWatts/m^2,SoftwareType,DateUTC
2013-01-12 00:03:00,49.0,49.0,29.31,East,91,1.0,2.0,99,0.00,,,0.45,0.000000,,2013-01-12 05:03:00,
2013-01-12 00:10:00,50.0,50.0,29.29,SSW,193,1.0,3.0,99,0.00,,,0.45,0.000000,,2013-01-12 05:10:00,
2013-01-12 00:32:00,50.0,50.0,29.29,SSW,193,1.0,3.0,99,0.00,,,0.45,0.000000,,2013-01-12 05:32:00,
2013-01-12 00:42:00,50.0,50.0,29.29,SSW,193,1.0,3.0,99,0.00,,,0.45,0.000000,,2013-01-12 05:42:00,
2013-01-12 00:53:00,50.0,50.0,29.29,SSW,193,1.0,3.0,99,0.00,,,0.45,0.000000,,2013-01-12 05:53:00,
2013-01-12 01:03:00,50.0,50.0,29.29,SSW,193,1.0,3.0,99,0.00,,,0.45,0.000000,,2013-01-12 06:03:00,
2013-01-12 01:10:00,49.0,49.0,29.29,NE,50,1.0,3.0,99,0.00,,,0.43,0.000000,,2013-01-12 06:10:00,
2013-01-12 01:33:00,49.0,49.0,29.29,NE,50,1.0,3.0,99,0.00,,,0.43,0.000000,,2013-01-12 06:33:00,
2013-01-12 01:43:00,49.0,49.0,29.29,NE,50,1.0,3.0,99,0.00,,,0.43,0.000000,,2013-01-12 06:43:00,
2013-01-12 01:53:00,49.0,49.0,29.29,NE,50,1.0,3.0,99,0.00,,,0.43,0.000000,,2013-01-12 06:53:00,
2013-01-12 02:02:00,49.0,49.0,29.29,NE,50,1.0,3.0,99,0.00,,,0.43,0.000000,,2013-01-12 07:02:00,
2013-01-12 02:10:00,49.0,49.0,29.28,SE,128,1.0,4.0,99,0.00,,,0.42,0.000000,,2013-01-12 07:10:00,
2013-01-12 02:32:00,49.0,49.0,29.28,SE,128,1.0,4.0,99,0.00,,,0.42,0.000000,,2013-01-12 07:32:00,
2013-01-12 02:42:00,49.0,49.0,29.28,SE,128,1.0,4.0,99,0.00,,,0.42,0.000000,,2013-01-12 07:42:00,
2013-01-12 02:53:00,49.0,49.0,29.28,SE,128,1.0,4.0,99,0.00,,,0.42,0.000000,,2013-01-12 07:53:00,
2013-01-12 03:02:00,49.0,49.0,29.28,SE,128,1.0,4.0,99,0.00,,,0.42,0.000000,,2013-01-12 08:02:00,
2013-01-12 03:10:00,49.0,49.0,29.28,East,92,0.0,3.0,99,0.01,,,0.43,0.000000,,2013-01-12 08:10:00,
2013-01-12 03:42:00,49.0,49.0,29.28,East,92,0.0,3.0,99,0.01,,,0.43,0.000000,,2013-01-12 08:42:00,
2013-01-12 03:53:00,49.0,49.0,29.28,East,92,0.0,3.0,99,0.01,,,0.43,0.000000,,2013-01-12 08:53:00,
2013-01-12 04:02:00,49.0,49.0,29.28,East,92,0.0,3.0,99,0.01,,,0.43,0.000000,,2013-01-12 09:02:00,
2013-01-12 04:10:00,49.0,49.0,29.26,SE,144,1.0,5.0,99,0.00,,,0.42,0.000000,,2013-01-12 09:10:00,
2013-01-12 04:33:00,49.0,49.0,29.26,SE,144,1.0,5.0,99,0.00,,,0.42,0.000000,,2013-01-12 09:33:00,
2013-01-12 04:43:00,49.0,49.0,29.26,SE,144,1.0,5.0,99,0.00,,,0.42,0.000000,,2013-01-12 09:43:00,
2013-01-12 04:53:00,49.0,49.0,29.26,SE,144,1.0,5.0,99,0.00,,,0.42,0.000000,,2013-01-12 09:53:00,
2013-01-12 05:02:00,49.0,49.0,29.26,SE,144,1.0,5.0,99,0.00,,,0.42,0.000000,,2013-01-12 10:02:00,
2013-01-12 05:10:00,49.0,49.0,29.25,NNW,343,2.0,5.0,99,0.00,,,0.40,0.000000,,2013-01-12 10:10:00,
2013-01-12 05:32:00,49.0,49.0,29.25,NNW,343,2.0,5.0,99,0.00,,,0.40,0.000000,,2013-01-12 10:32:00,
2013-01-12 05:43:00,49.0,49.0,29.25,NNW,343,2.0,5.0,99,0.00,,,0.40,0.000000,,2013-01-12 10:43:00,
2013-01-12 05:52:00,49.0,49.0,29.25,NNW,343,2.0,5.0,99,0.00,,,0.40,0.000000,,2013-01-12 10:52:00,
2013-01-12 06:02:00,49.0,49.0,29.25,NNW,343,2.0,5.0,99,0.00,,,0.40,0.000000,,2013-01-12 11:02:00,
2013-01-12 06:10:00,51.0,51.0,29.24,North,0,1.0,4.0,99,0.00,,,0.37,0.000000,,2013-01-12 11:10:00,
2013-01-12 06:33:00,51.0,51.0,29.24,North,0,1.0,4.0,99,0.00,,,0.37,0.000000,,2013-01-12 11:33:00,
2013-01-12 06:43:00,51.0,51.0,29.24,North,0,1.0,4.0,99,0.00,,,0.37,0.000000,,2013-01-12 11:43:00,
2013-01-12 06:53:00,51.0,51.0,29.24,North,0,1.0,4.0,99,0.00,,,0.37,0.000000,,2013-01-12 11:53:00,
2013-01-12 07:03:00,51.0,51.0,29.24,North,0,1.0,4.0,99,0.00,,,0.37,0.000000,,2013-01-12 12:03:00,
2013-01-12 07:10:00,52.0,52.0,29.26,NNE,18,2.0,3.0,99,0.00,,,0.36,0.000000,,2013-01-12 12:10:00,
2013-01-12 07:33:00,52.0,52.0,29.26,NNE,18,2.0,3.0,99,0.00,,,0.36,0.000000,,2013-01-12 12:33:00,
2013-01-12 07:43:00,52.0,52.0,29.26,NNE,18,2.0,3.0,99,0.00,,,0.36,0.000000,,2013-01-12 12:43:00,
2013-01-12 07:53:00,52.0,52.0,29.26,NNE,18,2.0,3.0,99,0.00,,,0.36,0.000000,,2013-01-12 12:53:00,
2013-01-12 08:02:00,52.0,52.0,29.26,NNE,18,2.0,3.0,99,0.00,,,0.36,0.000000,,2013-01-12 13:02:00,
2013-01-12 08:10:00,52.0,52.0,29.27,NNW,329,1.0,4.0,99,0.00,,,0.28,0.000000,,2013-01-12 13:10:00,
2013-01-12 08:33:00,52.0,52.0,29.27,NNW,329,1.0,4.0,99,0.00,,,0.28,0.000000,,2013-01-12 13:33:00,
2013-01-12 08:43:00,52.0,52.0,29.27,NNW,329,1.0,4.0,99,0.00,,,0.28,0.000000,,2013-01-12 13:43:00,
2013-01-12 08:53:00,52.0,52.0,29.27,NNW,329,1.0,4.0,99,0.00,,,0.28,0.000000,,2013-01-12 13:53:00,
2013-01-12 09:02:00,52.0,52.0,29.27,NNW,329,1.0,4.0,99,0.00,,,0.28,0.000000,,2013-01-12 14:02:00,
2013-01-12 09:10:00,52.0,52.0,29.29,NNE,25,1.0,3.0,99,0.00,,,0.23,1.000000,,2013-01-12 14:10:00,
2013-01-12 09:33:00,52.0,52.0,29.29,NNE,25,1.0,3.0,99,0.00,,,0.23,1.000000,,2013-01-12 14:33:00,
2013-01-12 09:43:00,52.0,52.0,29.29,NNE,25,1.0,3.0,99,0.00,,,0.23,1.000000,,2013-01-12 14:43:00,
2013-01-12 09:53:00,52.0,52.0,29.29,NNE,25,1.0,3.0,99,0.00,,,0.23,1.000000,,2013-01-12 14:53:00,
2013-01-12 10:03:00,52.0,52.0,29.29,NNE,25,1.0,3.0,99,0.00,,,0.23,1.000000,,2013-01-12 15:03:00,
2013-01-12 10:10:00,55.0,55.0,29.29,NE,48,1.0,5.0,99,0.00,,,0.16,20.000000,,2013-01-12 15:10:00,
2013-01-12 10:34:00,55.0,55.0,29.29,NE,48,1.0,5.0,99,0.00,,,0.16,20.000000,,2013-01-12 15:34:00,
2013-01-12 10:43:00,55.0,55.0,29.29,NE,48,1.0,5.0,99,0.00,,,0.16,20.000000,,2013-01-12 15:43:00,
2013-01-12 10:53:00,55.0,55.0,29.29,NE,48,1.0,5.0,99,0.00,,,0.16,20.000000,,2013-01-12 15:53:00,
2013-01-12 11:03:00,55.0,55.0,29.29,NE,48,1.0,5.0,99,0.00,,,0.16,20.000000,,2013-01-12 16:03:00,
2013-01-12 11:10:00,58.0,58.0,29.29,SW,221,1.0,3.0,99,0.00,,,0.10,67.000000,,2013-01-12 16:10:00,
2013-01-12 11:33:00,58.0,58.0,29.29,SW,221,1.0,3.0,99,0.00,,,0.10,67.000000,,2013-01-12 16:33:00,
2013-01-12 11:43:00,58.0,58.0,29.29,SW,221,1.0,3.0,99,0.00,,,0.10,67.000000,,2013-01-12 16:43:00,
2013-01-12 11:53:00,58.0,58.0,29.29,SW,221,1.0,3.0,99,0.00,,,0.10,67.000000,,2013-01-12 16:53:00,
2013-01-12 12:02:00,58.0,58.0,29.29,SW,221,1.0,3.0,99,0.00,,,0.10,67.000000,,2013-01-12 17:02:00,
2013-01-12 12:10:00,59.0,59.0,29.26,NW,321,1.0,4.0,99,0.00,,,0.07,113.000000,,2013-01-12 17:10:00,
2013-01-12 12:33:00,59.0,59.0,29.26,NW,321,1.0,4.0,99,0.00,,,0.07,113.000000,,2013-01-12 17:33:00,
2013-01-12 12:43:00,59.0,59.0,29.26,NW,321,1.0,4.0,99,0.00,,,0.07,113.000000,,2013-01-12 17:43:00,
2013-01-12 12:53:00,59.0,59.0,29.26,NW,321,1.0,4.0,99,0.00,,,0.07,113.000000,,2013-01-12 17:53:00,
2013-01-12 13:03:00,59.0,59.0,29.26,NW,321,1.0,4.0,99,0.00,,,0.07,113.000000,,2013-01-12 18:03:00,
2013-01-12 13:10:00,64.0,61.0,29.24,NNE,15,1.0,4.0,91,0.00,,,0.06,149.000000,,2013-01-12 18:10:00,
2013-01-12 13:33:00,64.0,61.0,29.24,NNE,15,1.0,4.0,91,0.00,,,0.06,149.000000,,2013-01-12 18:33:00,
2013-01-12 13:43:00,64.0,61.0,29.24,NNE,15,1.0,4.0,91,0.00,,,0.06,149.000000,,2013-01-12 18:43:00,
2013-01-12 13:53:00,64.0,61.0,29.24,NNE,15,1.0,4.0,91,0.00,,,0.06,149.000000,,2013-01-12 18:53:00,
2013-01-12 14:03:00,64.0,61.0,29.24,NNE,15,1.0,4.0,91,0.00,,,0.06,149.000000,,2013-01-12 19:03:00,
2013-01-12 14:10:00,67.0,62.0,29.24,North,352,3.0,5.0,85,0.00,,,0.04,204.000000,,2013-01-12 19:10:00,
2013-01-12 14:33:00,67.0,62.0,29.24,North,352,3.0,5.0,85,0.00,,,0.04,204.000000,,2013-01-12 19:33:00,
2013-01-12 14:43:00,67.0,62.0,29.24,North,352,3.0,5.0,85,0.00,,,0.04,204.000000,,2013-01-12 19:43:00,
2013-01-12 14:53:00,67.0,62.0,29.24,North,352,3.0,5.0,85,0.00,,,0.04,204.000000,,2013-01-12 19:53:00,
2013-01-12 15:03:00,67.0,62.0,29.24,North,352,3.0,5.0,85,0.00,,,0.04,204.000000,,2013-01-12 20:03:00,
2013-01-12 15:10:00,67.0,63.0,29.24,North,5,4.0,6.0,86,0.00,,,0.04,277.000000,,2013-01-12 20:10:00,
2013-01-12 15:33:00,67.0,63.0,29.24,North,5,4.0,6.0,86,0.00,,,0.04,277.000000,,2013-01-12 20:33:00,
2013-01-12 15:43:00,67.0,63.0,29.24,North,5,4.0,6.0,86,0.00,,,0.04,277.000000,,2013-01-12 20:43:00,
2013-01-12 15:53:00,67.0,63.0,29.24,North,5,4.0,6.0,86,0.00,,,0.04,277.000000,,2013-01-12 20:53:00,
2013-01-12 16:03:00,67.0,63.0,29.24,North,5,4.0,6.0,86,0.00,,,0.04,277.000000,,2013-01-12 21:03:00,
2013-01-12 16:10:00,67.0,63.0,29.23,North,10,2.0,5.0,88,0.00,,,0.04,223.000000,,2013-01-12 21:10:00,
2013-01-12 16:33:00,67.0,63.0,29.23,North,10,2.0,5.0,88,0.00,,,0.04,223.000000,,2013-01-12 21:33:00,
2013-01-12 16:43:00,67.0,63.0,29.23,North,10,2.0,5.0,88,0.00,,,0.04,223.000000,,2013-01-12 21:43:00,
2013-01-12 16:53:00,67.0,63.0,29.23,North,10,2.0,5.0,88,0.00,,,0.04,223.000000,,2013-01-12 21:53:00,
2013-01-12 17:03:00,67.0,63.0,29.23,North,10,2.0,5.0,88,0.00,,,0.04,223.000000,,2013-01-12 22:03:00,
2013-01-12 17:10:00,66.0,64.0,29.23,North,350,1.0,3.0,92,0.00,,,0.03,121.000000,,2013-01-12 22:10:00,
2013-01-12 17:33:00,66.0,64.0,29.23,North,350,1.0,3.0,92,0.00,,,0.03,121.000000,,2013-01-12 22:33:00,
2013-01-12 17:44:00,66.0,64.0,29.23,North,350,1.0,3.0,92,0.00,,,0.03,121.000000,,2013-01-12 22:44:00,
2013-01-12 17:53:00,66.0,64.0,29.23,North,350,1.0,3.0,92,0.00,,,0.03,121.000000,,2013-01-12 22:53:00,
2013-01-12 18:03:00,66.0,64.0,29.23,North,350,1.0,3.0,92,0.00,,,0.03,121.000000,,2013-01-12 23:03:00,
2013-01-12 18:10:00,61.0,61.0,29.23,South,184,1.0,5.0,99,0.00,,,0.03,74.000000,,2013-01-12 23:10:00,
2013-01-12 18:33:00,61.0,61.0,29.23,South,184,1.0,5.0,99,0.00,,,0.03,74.000000,,2013-01-12 23:33:00,
2013-01-12 18:43:00,61.0,61.0,29.23,South,184,1.0,5.0,99,0.00,,,0.03,74.000000,,2013-01-12 23:43:00,
2013-01-12 18:53:00,61.0,61.0,29.23,South,184,1.0,5.0,99,0.00,,,0.03,74.000000,,2013-01-12 23:53:00,
2013-01-12 19:03:00,61.0,61.0,29.23,South,184,1.0,5.0,99,0.00,,,0.03,74.000000,,2013-01-13 00:03:00,
2013-01-12 19:10:00,60.0,59.0,29.23,SSE,159,3.0,7.0,98,0.00,,,0.03,8.000000,,2013-01-13 00:10:00,
2013-01-12 19:33:00,60.0,59.0,29.23,SSE,159,3.0,7.0,98,0.00,,,0.03,8.000000,,2013-01-13 00:33:00,
2013-01-12 19:43:00,60.0,59.0,29.23,SSE,159,3.0,7.0,98,0.00,,,0.03,8.000000,,2013-01-13 00:43:00,
2013-01-12 19:53:00,60.0,59.0,29.23,SSE,159,3.0,7.0,98,0.00,,,0.03,8.000000,,2013-01-13 00:53:00,
2013-01-12 20:03:00,60.0,59.0,29.23,SSE,159,3.0,7.0,98,0.00,,,0.03,8.000000,,2013-01-13 01:03:00,
2013-01-12 20:10:00,59.0,56.0,29.24,South,178,2.0,8.0,90,0.00,,,0.02,0.000000,,2013-01-13 01:10:00,
2013-01-12 20:43:00,59.0,56.0,29.24,South,178,2.0,8.0,90,0.00,,,0.02,0.000000,,2013-01-13 01:43:00,
2013-01-12 20:53:00,59.0,56.0,29.24,South,178,2.0,8.0,90,0.00,,,0.02,0.000000,,2013-01-13 01:53:00,
2013-01-12 21:02:00,59.0,56.0,29.24,South,178,2.0,8.0,90,0.00,,,0.02,0.000000,,2013-01-13 02:02:00,
2013-01-12 21:10:00,59.0,58.0,29.23,ESE,106,1.0,4.0,96,0.00,,,0.02,0.000000,,2013-01-13 02:10:00,
2013-01-12 21:33:00,59.0,58.0,29.23,ESE,106,1.0,4.0,96,0.00,,,0.02,0.000000,,2013-01-13 02:33:00,
2013-01-12 21:43:00,59.0,58.0,29.23,ESE,106,1.0,4.0,96,0.00,,,0.02,0.000000,,2013-01-13 02:43:00,
2013-01-12 21:53:00,59.0,58.0,29.23,ESE,106,1.0,4.0,96,0.00,,,0.02,0.000000,,2013-01-13 02:53:00,
2013-01-12 22:03:00,59.0,58.0,29.23,ESE,106,1.0,4.0,96,0.00,,,0.02,0.000000,,2013-01-13 03:03:00,
2013-01-12 22:10:00,58.0,58.0,29.23,East,97,2.0,2.0,99,0.00,,,0.01,0.000000,,2013-01-13 03:10:00,
2013-01-12 22:33:00,58.0,58.0,29.23,East,97,2.0,2.0,99,0.00,,,0.01,0.000000,,2013-01-13 03:33:00,
2013-01-12 22:43:00,58.0,58.0,29.23,East,97,2.0,2.0,99,0.00,,,0.01,0.000000,,2013-01-13 03:43:00,
2013-01-12 22:53:00,58.0,58.0,29.23,East,97,2.0,2.0,99,0.00,,,0.01,0.000000,,2013-01-13 03:53:00,
2013-01-12 23:03:00,58.0,58.0,29.23,East,97,2.0,2.0,99,0.00,,,0.01,0.000000,,2013-01-13 04:03:00,
2013-01-12 23:10:00,55.0,55.0,29.22,NE,37,0.0,3.0,99,0.00,,,0.01,0.000000,,2013-01-13 04:10:00,
2013-01-12 23:33:00,55.0,55.0,29.22,NE,37,0.0,3.0,99,0.00,,,0.01,0.000000,,2013-01-13 04:33:00,
2013-01-12 23:43:00,55.0,55.0,29.22,NE,37,0.0,3.0,99,0.00,,,0.01,0.000000,,2013-01-13 04:43:00,
2013-01-12 23:53:00,55.0,55.0,29.22,NE,37,0.0,3.0,99,0.00,,,0.01,0.000000,,2013-01-13 04:53:00,